Flag for U.S.A. Weather past 2 weeks in Atlantic City, New Jersey, U.S.A.

Now
87 °F

Passing clouds.


Feels Like: 87 °F
Forecast: 74 / 85 °F
Wind: 8 mph from Northwest

Location: Atlantic City International Airport

Current Time: Jul 31, 2015 at 1:36:25 PM

Latest Report: Jul 31, 2015 at 12:54 PM


Visibility: 10 mi

Pressure: 29.89 "Hg

Humidity: 40%

Dew point: 60 °F

Location of Atlantic CityLocation

Historic Weather in Atlantic City — Graph

°F

Atlantic City temperature yesterday

Maximum temperature yesterday: 87 °F (at 12:54 PM)
Minimum temperature yesterday: 76 °F (at 3:54 AM)
Average temperature yesterday: 80 °F

Past Weeks' High & Low Weather Summary

 TemperatureHumidityPressure
High94 °F (Jul 20, 3:54 PM)97% (Jul 27, 5:54 AM)30.12 "Hg (Jul 27, 5:54 AM)
Low59 °F (Jul 17, 4:54 AM)35% (Jul 25, 11:54 AM)29.61 "Hg (Jul 21, 5:54 PM)
Average77 °F72%29.92 "Hg
* Reported Jul 16 11:54 AM — Jul 31 11:54 AM, Atlantic City, Weather by CustomWeather, © 2015

Note: Actual official high and low records may vary slightly from our data, if they occured in-between our weather recording intervals... More about our weather records

Advertising

Atlantic City weather history for previous 24 hours

 ConditionsComfort  
Time TempWeatherWind HumidityBarometerVisibility
11:54 AM
Fri, Jul 31
85 °FSunny.9 mph43%29.90 "Hg10 mi
10:54 AM84 °FSunny.8 mph51%29.91 "Hg10 mi
9:54 AM81 °FSunny.6 mph58%29.91 "Hg10 mi
8:54 AM78 °FSunny.8 mph66%29.90 "Hg10 mi
7:54 AM75 °FSunny.6 mph79%29.90 "Hg10 mi
6:54 AM71 °FClear.3 mph90%29.89 "Hg8 mi
5:54 AM70 °FClear.5 mph90%29.88 "Hg7 mi
4:54 AM72 °FFog.5 mph93%29.87 "Hg6 mi
3:54 AM73 °FFog.6 mph94%29.86 "Hg5 mi
3:03 AM74 °FFog.10 mph97%29.86 "Hg2 mi
2:54 AM74 °FFog.9 mph97%29.85 "Hg4 mi
1:54 AM75 °FClear.8 mph90%29.85 "Hg7 mi
12:54 AM76 °FClear.8 mph88%29.87 "Hg9 mi
11:54 PM
Thu, Jul 30
76 °FPassing clouds.6 mph91%29.87 "Hg10 mi
10:54 PM77 °FPassing clouds.6 mph88%29.87 "Hg10 mi
9:54 PM78 °FPassing clouds.6 mph87%29.88 "Hg10 mi
8:54 PM78 °FPassing clouds.No wind87%29.86 "Hg10 mi
7:54 PM77 °FSunny.No wind90%29.85 "Hg9 mi
6:54 PM77 °FBroken clouds.6 mph90%29.85 "Hg10 mi
5:54 PM81 °FSunny.10 mph77%29.83 "Hg10 mi
4:54 PM82 °FSunny.15 mph77%29.84 "Hg10 mi
3:54 PM87 °FScattered clouds.15 mph65%29.85 "Hg10 mi
2:54 PM85 °FScattered clouds.10 mph68%29.87 "Hg10 mi
1:54 PM87 °FSunny.10 mph67%29.88 "Hg10 mi
Weather by CustomWeather, © 2015

See weather overviewHow to use our weather pages